EHI
0 0 0 0 0 0 0 0 0 0 0 0 0 0 0 0 0 0 0 0 0 0 0 0 0 0 0 0 0 0 0 0 0 0 0 0 0 0 0 0 0 0 0 0
0 0 0 0 0 0 0 0 0 0 0 0 0 0 0 0 0 0 0 0 0 0 0 0 0 0 0 0 0 0 0 0 0 0 0 0 0 0 0 0 0 0 0 0
0 0 0 0 0 0 0 0 0 0 0 0 0 0 0 0 0 0 0 0 0 0 0 0 0 0 0 0 0 0 0 0 0 0 0 0 0 0 0 0 0 0 0 0
0 0 0 0 0 0 0 0 0 0 0 0 0 0 0 0 0 0 0 0 0 0 0 0 0 0 0 0 0 0 0 0 0 0 0 0 0 0 0 0 0 0 0 0
0 0 0 0 0 0 0 0 0 0 0 0 0 0 0 0 0 0 0 0 0 0 0 0 0 0 0 0 0 0 0 0 0 0 0 0 0 0 0 0 0 0 0 0
0 0 0 0 0 0 0 0 0 0 0 0 0 0 0 0 0 0 0 0 0 0 0 0 0 0 0 0 0 0 0 0 0 0 0 0 0 0 0 0 0 0 0 0
0 0 0 0 0 0 0 0 0 0 0 0 0 0 0 0 0 0 0 0 0 0 0 0 0 0 0 0 0 0 0 0 0 0 0 0 0 0 0 0 0 0 0 0
0 0 0 0 0 0 0 0 0 0 0 0 0 0 0 0 0 0 0 0 0 0 0 0 0 0 0 0 0 0 0 0 0 0 0 0 0 0 0 0 0 0 0 0
0 0 0 0 0 0 0 0 0 0 0 0 0 0 0 0 0 0 0 0 0 0 0 0 0 0 0 0 0 0 0 0 0 0 0 0 0 0 0 0 0 0 0 0
0 0 0 0 0 0 0 0 0 0 0 0 0 0 0 0 0 0 0 0 0 0 0 0 0 0 0 0 0 0 0 0 0 0 0 0 0 0 0 0 0 0 0 0
0 0 0 0 0 0 0 0 0 0 0 0 0 0 0 0 0 0 0 0 0 0 0 0 0 0 0 0 0 0 0 0 0 0 0 0 0 0 0 0 0 0 0 0
0 0 0 0 0 0 0 0 0 0 0 0 0 0 0 0 0 0 0 0 0 0 0 0 0 0 0 0 0 0 0 0 0 0 0 0 0 0 0 0 0 0 0 0
0 0 0 0 0 0 0 0 0 0 0 0 0 0 0 0 0 0 0 0 0 0 0 0 0 0 0 0 0 0 0 0 0 0 0 0 0 0 0 0 0 0 0 0
0 0 0 0 0 0 0 0 0 0 0 0 0 0 0 0 0 0 0 0 0 0 0 0 0 0 0 0 0 0 0 0 0 0 0 0 0 0 0 0 0 0 0 0
0 0 0 0 0 0 0 0 0 0 0 0 0 0 0 0 0 0 0 0 0 0 0 0 0 0 0 0 0 0 0 0 0 0 0 0 0 0 0 0 0 0 0 0
0 0 0 0 0 0 0 0 0 0 0 0 0 0 0 0 0 0 0 0 0 0 0 0 0 0 0 0 0 0 0 0 0 0 0 0 0 0 0 0 0 0 0 0
0 0 0 0 0 0 0 0 0 0 0 0 0 0 0 0 0 0 0 0 0 0 0 0 0 0 0 0 0 0 0 0 0 0 0 0 0 0 0 0 0 0 0 0
0 0 0 0 0 0 0 0 0 0 0 0 0 0 0 0 0 0 0 0 0 0 0 0 0 0 0 0 0 0 0 0 0 0 0 0 0 0 0 0 0 0 0 0
0 0 0 0 0 0 0 0 0 0 0 0 0 0 0 0 0 0 0 0 0 0 0 0 0 0 0 0 0 0 0 0 0 0 0 0 0 0 0 0 0 0 0 0
0 0 0 0 0 0 0 0 0 0 0 0 0 0 0 0 0 0 0 0 0 0 0 0 0 0 0 0 0 0 0 0 0 0 0 0 0 0 0 0 0 0 0 0
0 0 0 0 0 0 0 0 0 0 0 0 0 0 0 0 0 0 0 0 0 0 0 0 0 0 0 0 0 0 0 0 0 0 0 0 0 0 0 0 0 0 0 0
0 0 0 0 0 0 0 0 0 0 0 0 0 0 0 0 0 0 0 0 0 0 0 0 0 0 0 0 0 0 0 0 0 0 0 0 0 0 0 0 0 0 0 0
0 0 0 0 0 0 0 0 0 0 0 0 0 0 0 0 0 0 0 0 0 0 0 0 0 0 0 0 0 0 0 0 0 0 0 0 0 0 0 0 0 0 0 0
0 0 0 0 0 0 0 0 0 0 0 0 0 0 0 0 0 0 0 0 0 0 0 0 0 0 0 0 0 0 0 0 0 0 0 0 0 0 0 0 0 0 0 0
0 0 0 0 0 0 0 0 0 0 0 0 0 0 0 0 0 0 0 0 0 0 0 0 0 0 0 0 0 0 0 0 0 0 0 0 0 0 0 0 0 0 0 0
0 0 0 0 0 0 0 0 0 0 0 0 0 0 0 0 0 0 0 0 0 0 0 0 0 0 0 0 0 0 0 0 0 0 0 0 0 0 0 0 0 0 0 0
0 0 0 0 0 0 0 0 0 0 0 0 0 0 0 0 0 0 0 0 0 0 0 0 0 0 0 0 0 0 0 0 0 0 0 0 0 0 0 0 0 0 0 0
Wind_Speed
16 17 17 18 18 18 18 19 21 22 21 18 16 15 12 10 9 9 9 8 7 5 4 4 3 4 4 2 1 1 0 2 5 6 6 7 7 6 5 6 6 6 7 7
16 16 16 18 20 20 20 20 21 21 21 17 13 11 10 9 9 10 10 8 7 5 5 6 5 6 5 4 3 2 3 4 7 8 8 8 8 7 7 6 7 7 8 8
11 9 12 12 9 10 12 13 16 17 16 15 16 14 12 10 9 10 9 7 7 6 6 6 7 6 6 5 4 4 3 4 6 9 9 9 9 8 7 7 8 8 8 9
9 9 8 5 7 10 13 14 14 16 16 16 15 13 12 11 10 10 8 7 7 7 7 7 7 7 7 6 5 4 4 4 6 8 10 9 8 8 7 7 7 7 8 10
7 10 11 8 6 10 12 15 12 11 12 13 13 12 12 8 7 8 8 7 7 8 8 8 8 8 8 7 7 6 4 4 6 8 10 10 10 9 8 7 8 8 8 9
9 11 8 5 10 10 11 12 6 13 16 18 17 15 12 9 6 8 8 8 8 8 9 9 9 8 9 9 8 7 5 5 6 8 9 10 10 10 9 8 8 8 8 8
11 11 8 6 11 14 12 12 20 22 22 22 20 17 18 17 14 10 9 10 10 10 10 10 9 9 10 9 9 8 6 6 7 7 8 8 8 8 8 8 8 8 9 8
6 8 4 12 14 12 14 19 21 22 22 22 22 21 20 19 15 12 11 11 12 11 11 10 10 10 11 10 8 8 8 8 8 8 8 8 8 8 9 9 10 9 9 8
6 8 11 13 13 14 16 18 19 20 21 21 22 21 20 19 17 13 13 12 12 13 12 11 12 11 11 9 9 9 9 9 9 9 8 8 9 9 9 9 8 9 9 8
11 9 10 11 14 16 17 17 18 19 20 19 20 20 20 18 17 15 12 12 13 14 14 13 13 12 11 9 10 10 10 10 9 9 9 9 7 8 8 9 8 8 8 8
11 9 11 10 16 18 19 19 19 19 18 18 18 18 18 17 17 15 12 11 13 15 15 15 14 13 12 11 11 12 11 10 10 10 9 8 8 5 7 7 6 7 7 8
7 12 11 12 17 20 20 20 21 21 20 18 17 17 17 16 16 15 13 10 13 16 16 16 15 14 13 12 13 12 11 11 9 9 8 8 9 8 6 4 7 5 3 3
9 13 11 14 18 19 19 21 22 21 20 19 17 16 16 15 15 16 14 12 14 17 18 17 17 16 15 15 14 13 12 10 9 9 9 9 9 9 9 6 5 5 5 5
10 11 11 14 16 18 19 22 22 23 21 19 18 17 15 15 15 16 16 14 13 15 16 17 18 17 17 16 15 15 13 11 9 9 9 10 10 10 10 11 11 9 7 9
10 9 11 15 17 18 19 20 21 21 22 22 20 18 16 16 15 14 15 17 14 13 16 17 18 18 18 18 17 16 14 11 10 10 10 10 10 10 10 12 11 11 12 11
15 15 16 18 19 21 21 22 22 22 22 23 22 21 20 17 15 12 11 14 15 13 14 16 18 18 18 18 18 15 13 12 11 10 11 11 11 11 10 11 11 11 12 13
18 20 21 22 22 23 22 22 22 23 23 24 25 24 23 20 17 14 10 10 13 14 13 14 16 17 18 19 18 14 13 13 13 11 11 11 11 11 11 11 11 11 11 12
19 21 22 23 23 23 23 23 22 23 23 24 25 25 23 21 19 16 12 10 10 12 13 13 14 15 18 19 17 14 13 13 14 13 12 12 12 12 12 12 13 13 11 12
22 23 23 23 23 22 22 22 23 23 23 23 24 24 24 22 20 17 13 11 9 9 10 11 12 13 16 19 17 13 14 15 15 14 13 13 13 13 13 13 13 13 12 12
24 24 24 24 24 23 22 21 22 22 22 23 24 24 24 22 20 18 14 11 8 5 7 10 10 11 15 17 18 15 16 16 16 15 14 14 15 14 14 14 14 13 13 12
25 25 25 24 24 23 22 22 21 21 22 23 23 23 23 22 20 17 13 11 9 5 5 8 7 9 11 12 17 16 16 16 16 15 15 15 15 15 15 15 14 13 12 12
24 23 25 24 24 24 22 21 21 21 22 22 23 22 21 20 19 17 15 11 9 6 5 4 5 8 9 11 15 16 16 17 15 15 15 15 15 16 15 15 14 13 13 12
22 23 24 24 24 24 24 22 21 19 20 21 21 21 21 19 15 13 13 9 8 7 7 6 6 7 8 10 13 16 17 17 16 16 15 15 15 15 15 16 15 14 13 13
22 23 23 23 23 23 23 22 21 18 20 20 19 20 19 16 14 13 12 9 10 9 9 8 9 9 9 9 12 14 15 16 16 16 16 15 15 15 15 15 15 14 14 15
22 22 23 22 21 18 19 21 22 20 19 15 17 18 16 14 13 12 11 12 10 10 10 10 12 12 10 10 12 14 14 15 15 16 16 15 15 15 15 15 15 14 14 14
21 19 18 19 17 16 15 15 16 16 15 14 13 12 12 12 13 12 11 13 14 11 11 9 10 11 10 10 12 14 14 14 14 15 16 15 17 16 15 15 18 14 13 13
20 18 16 16 16 15 15 16 17 17 15 13 12 11 11 11 11 11 12 11 10 10 10 9 9 9 10 11 12 12 12 12 13 14 14 14 13 13 14 16 13 13 12 12
Wind_Direction
281 287 287 284 281 277 264 261 272 282 289 298 307 314 311 304 295 291 290 287 287 282 273 260 243 237 246 249 255 310 284 150 158 160 169 170 176 179 166 148 136 131 128 122
283 281 281 278 275 274 272 269 267 273 279 287 299 305 298 290 284 290 295 288 278 258 243 239 237 238 244 249 259 266 245 195 175 172 177 176 172 167 154 140 134 132 125 116
287 305 294 274 278 288 287 277 273 276 287 303 307 306 300 293 288 294 296 285 267 249 235 233 235 237 243 242 247 250 234 195 175 172 174 172 165 156 149 142 135 128 123 114
288 297 269 295 330 310 299 295 295 294 299 305 309 310 294 277 276 283 282 270 255 243 233 228 230 229 235 237 243 243 227 189 169 166 162 158 159 152 149 144 138 134 130 123
280 289 289 296 354 344 318 302 312 331 333 328 329 307 283 270 242 257 260 251 245 235 230 224 223 223 227 234 237 232 219 187 171 163 159 162 163 159 154 150 144 144 139 137
276 288 283 355 27 348 307 287 23 341 328 323 318 304 311 335 297 255 237 227 223 219 220 216 217 218 226 232 234 231 213 185 170 166 164 164 161 159 154 151 148 146 138 143
274 276 274 26 357 330 302 330 338 321 312 306 304 302 304 303 293 269 241 225 213 210 209 212 210 212 226 235 233 227 205 181 172 164 158 153 152 152 151 153 146 138 134 133
281 271 280 11 345 339 326 322 314 311 306 302 300 298 297 295 291 271 248 232 214 205 204 204 204 209 223 231 227 216 199 185 172 165 161 152 154 154 155 150 147 143 139 137
285 279 323 343 345 347 340 328 323 319 314 308 303 298 297 295 292 280 254 236 217 206 201 198 199 208 222 221 213 205 196 185 173 167 162 160 162 160 160 167 167 159 157 152
280 276 327 345 1 355 347 340 336 332 327 322 315 309 305 300 294 286 265 235 218 208 202 198 198 205 216 212 200 200 194 183 175 172 171 168 172 172 176 178 175 170 166 159
279 323 344 345 355 347 340 338 338 336 335 335 331 324 320 311 301 293 276 239 219 210 204 198 195 199 205 201 196 199 193 184 183 184 180 175 182 173 190 182 176 177 172 168
352 359 329 334 342 340 336 333 331 329 329 334 336 333 331 325 320 312 293 253 224 215 207 198 193 195 196 194 196 199 194 190 189 189 182 184 175 162 64 81 107 105 101 159
1 340 342 344 338 337 332 327 324 324 324 327 330 331 332 331 330 323 310 277 239 222 210 198 193 193 191 191 195 200 201 193 194 192 186 192 187 181 167 128 103 122 126 110
356 348 338 335 325 323 322 321 319 317 317 318 320 323 327 329 332 333 325 305 269 240 221 204 196 194 190 190 194 199 202 194 199 195 193 195 194 191 182 172 169 168 158 141
330 318 300 302 306 310 311 311 312 311 312 313 313 315 318 321 323 328 328 320 295 256 231 212 202 196 191 190 193 199 202 195 196 199 197 198 195 194 190 184 179 172 163 158
308 305 303 304 306 307 308 309 309 307 308 308 309 310 311 310 309 314 326 329 316 283 247 223 209 199 190 190 192 196 201 195 189 197 196 195 194 194 190 185 182 177 175 171
299 304 308 307 307 306 306 306 306 305 306 307 307 306 305 302 301 303 314 323 317 303 276 243 222 205 192 189 192 195 194 183 185 200 198 193 192 193 190 187 186 182 181 172
295 297 299 300 300 300 300 299 298 300 301 302 302 301 299 297 295 294 296 304 311 308 290 265 238 215 198 192 192 195 191 182 187 200 198 194 192 193 191 190 189 187 182 166
305 302 301 300 300 299 298 299 301 301 302 301 300 298 295 292 289 286 283 285 294 302 301 290 265 228 204 195 190 194 190 186 185 196 197 189 193 196 194 193 192 191 190 183
313 312 310 308 306 304 302 299 300 301 300 300 298 295 292 289 287 283 275 269 265 268 294 300 278 236 214 197 193 195 192 190 189 192 195 191 196 199 196 196 197 197 198 198
318 316 314 311 309 306 303 300 299 298 299 297 295 293 291 288 284 280 272 267 257 238 263 289 278 251 223 199 196 201 193 191 192 192 194 194 195 199 200 200 201 204 205 205
318 316 314 312 310 308 307 304 299 297 296 294 292 291 289 286 282 277 267 259 256 221 221 249 263 267 253 212 203 209 197 192 193 194 195 197 197 199 201 203 205 207 209 211
316 314 313 313 311 310 308 305 302 299 295 292 290 288 285 282 280 276 271 258 247 222 218 227 235 263 267 236 214 213 205 196 194 195 196 198 200 202 203 205 207 208 210 211
315 314 313 312 311 310 308 308 306 300 293 289 284 281 279 277 270 261 260 254 239 227 230 223 219 233 238 235 225 217 212 203 198 197 197 198 201 202 204 206 207 209 211 215
312 312 311 312 313 311 309 309 307 300 294 286 280 277 273 269 267 266 265 261 248 230 236 221 211 216 221 226 224 219 215 210 204 200 199 199 201 203 204 206 209 211 213 216
312 309 308 308 311 309 311 310 306 301 296 287 278 271 269 266 264 260 258 258 254 238 237 228 212 204 213 219 220 219 216 210 208 210 208 203 205 205 206 207 210 213 217 220
310 310 310 312 314 315 315 312 308 305 300 292 283 272 266 264 262 258 256 256 254 244 232 222 214 207 211 214 214 215 216 214 210 209 213 213 210 209 210 210 211 211 214 218